Time,TemperatureF,DewpointF,PressureIn,WindDirection,WindDirectionDegrees,WindSpeedMPH,WindSpeedGustMPH,Humidity,HourlyPrecipIn,Conditions,Clouds,dailyrainin,SoftwareType,DateUTC
2013-05-24 00:01:00,75.1,70.3,30.04,WSW,244,0.0,0.0,85,0.00,,---,0.00,VWS V13.01,2013-05-24 05:01:00,
2013-05-24 00:06:00,75.0,70.2,30.04,WSW,244,0.0,0.0,85,0.00,,---,0.00,VWS V13.01,2013-05-24 05:06:00,
2013-05-24 00:11:00,74.8,70.3,30.04,WSW,244,0.0,0.0,86,0.00,,---,0.00,VWS V13.01,2013-05-24 05:11:00,
2013-05-24 00:16:00,74.6,70.1,30.03,WSW,244,0.0,0.0,86,0.00,,---,0.00,VWS V13.01,2013-05-24 05:16:00,
2013-05-24 00:21:00,74.5,70.0,30.03,WSW,244,0.0,0.0,86,0.00,,---,0.00,VWS V13.01,2013-05-24 05:21:00,
2013-05-24 00:26:00,74.4,69.9,30.03,WSW,244,0.0,0.0,86,0.00,,---,0.00,VWS V13.01,2013-05-24 05:26:00,
2013-05-24 00:31:00,74.4,69.9,30.03,WSW,244,0.0,0.0,86,0.00,,---,0.00,VWS V13.01,2013-05-24 05:31:00,
2013-05-24 00:36:00,74.3,69.8,30.03,WSW,244,0.0,0.0,86,0.00,,---,0.00,VWS V13.01,2013-05-24 05:36:00,
2013-05-24 00:41:00,74.3,69.8,30.03,WSW,244,0.0,0.0,86,0.00,,---,0.00,VWS V13.01,2013-05-24 05:41:00,
2013-05-24 00:46:00,74.3,69.5,30.03,WSW,244,0.0,0.0,85,0.00,,---,0.00,VWS V13.01,2013-05-24 05:46:00,
2013-05-24 00:51:00,74.4,69.6,30.03,WSW,244,0.0,0.0,85,0.00,,---,0.00,VWS V13.01,2013-05-24 05:51:00,
2013-05-24 00:56:00,74.4,69.6,30.02,WSW,244,0.0,0.0,85,0.00,,---,0.00,VWS V13.01,2013-05-24 05:56:00,
2013-05-24 01:01:00,74.3,69.5,30.02,WSW,244,0.0,0.0,85,0.00,,---,0.00,VWS V13.01,2013-05-24 06:01:00,
2013-05-24 01:06:00,74.1,69.3,30.02,WSW,244,0.0,0.0,85,0.00,,---,0.00,VWS V13.01,2013-05-24 06:06:00,
2013-05-24 01:11:00,73.9,69.4,30.02,WSW,244,0.0,0.0,86,0.00,,---,0.00,VWS V13.01,2013-05-24 06:11:00,
2013-05-24 01:16:00,73.8,69.3,30.02,WSW,244,0.0,0.0,86,0.00,,---,0.00,VWS V13.01,2013-05-24 06:16:00,
2013-05-24 01:21:00,73.6,69.2,30.01,WSW,244,0.0,0.0,86,0.00,,---,0.00,VWS V13.01,2013-05-24 06:21:00,
2013-05-24 01:26:00,73.4,69.3,30.02,WSW,244,0.0,0.0,87,0.00,,---,0.00,VWS V13.01,2013-05-24 06:26:00,
2013-05-24 01:31:00,73.3,69.2,30.02,WSW,244,0.0,0.0,87,0.00,,---,0.00,VWS V13.01,2013-05-24 06:31:00,
2013-05-24 01:36:00,73.2,69.1,30.02,WSW,244,0.0,0.0,87,0.00,,---,0.00,VWS V13.01,2013-05-24 06:36:00,
2013-05-24 01:41:00,73.1,69.0,30.02,WSW,244,0.0,0.0,87,0.00,,---,0.00,VWS V13.01,2013-05-24 06:41:00,
2013-05-24 01:46:00,72.9,68.8,30.02,WSW,244,0.0,0.0,87,0.00,,---,0.00,VWS V13.01,2013-05-24 06:46:00,
2013-05-24 01:51:00,72.8,69.0,30.02,WSW,244,0.0,1.0,88,0.00,,---,0.00,VWS V13.01,2013-05-24 06:51:00,
2013-05-24 01:56:00,72.8,69.0,30.02,WSW,244,0.0,0.0,88,0.00,,---,0.00,VWS V13.01,2013-05-24 06:56:00,
2013-05-24 02:01:00,72.8,69.0,30.02,WSW,244,0.0,0.0,88,0.00,,---,0.00,VWS V13.01,2013-05-24 07:01:00,
2013-05-24 02:06:00,72.7,68.9,30.02,WSW,244,0.0,0.0,88,0.00,,---,0.00,VWS V13.01,2013-05-24 07:06:00,
2013-05-24 02:11:00,72.7,68.9,30.02,WSW,244,0.0,0.0,88,0.00,,---,0.00,VWS V13.01,2013-05-24 07:11:00,
2013-05-24 02:16:00,72.7,68.9,30.02,WSW,244,0.0,0.0,88,0.00,,---,0.00,VWS V13.01,2013-05-24 07:16:00,
2013-05-24 02:21:00,72.8,69.4,30.02,WSW,244,0.0,0.0,89,0.00,,---,0.00,VWS V13.01,2013-05-24 07:21:00,
2013-05-24 02:26:00,72.9,69.1,30.03,WSW,244,0.0,0.0,88,0.00,,---,0.00,VWS V13.01,2013-05-24 07:26:00,
2013-05-24 02:31:00,73.0,69.2,30.02,WSW,244,0.0,0.0,88,0.00,,---,0.00,VWS V13.01,2013-05-24 07:31:00,
2013-05-24 02:36:00,73.0,69.2,30.02,WSW,244,0.0,0.0,88,0.00,,---,0.00,VWS V13.01,2013-05-24 07:36:00,
2013-05-24 02:41:00,73.0,69.2,30.03,WSW,244,0.0,0.0,88,0.00,,---,0.00,VWS V13.01,2013-05-24 07:41:00,
2013-05-24 02:46:00,72.8,69.0,30.03,WSW,244,0.0,0.0,88,0.00,,---,0.00,VWS V13.01,2013-05-24 07:46:00,
2013-05-24 02:51:00,72.6,69.2,30.03,WSW,244,0.0,0.0,89,0.00,,---,0.00,VWS V13.01,2013-05-24 07:51:00,
2013-05-24 02:56:00,72.4,69.0,30.03,WSW,244,0.0,0.0,89,0.00,,---,0.00,VWS V13.01,2013-05-24 07:56:00,
2013-05-24 03:01:00,72.2,68.8,30.03,WSW,244,0.0,1.0,89,0.00,,---,0.00,VWS V13.01,2013-05-24 08:01:00,
2013-05-24 03:06:00,72.0,68.6,30.03,WSW,244,0.0,0.0,89,0.00,,---,0.00,VWS V13.01,2013-05-24 08:06:00,
2013-05-24 03:11:00,71.7,68.3,30.03,WSW,244,0.0,0.0,89,0.00,,---,0.00,VWS V13.01,2013-05-24 08:11:00,
2013-05-24 03:16:00,71.5,68.4,30.03,WSW,244,0.0,0.0,90,0.00,,---,0.00,VWS V13.01,2013-05-24 08:16:00,
2013-05-24 03:21:00,71.3,68.2,30.03,WSW,244,0.0,0.0,90,0.00,,---,0.00,VWS V13.01,2013-05-24 08:21:00,
2013-05-24 03:26:00,71.3,68.5,30.03,WSW,244,0.0,0.0,91,0.00,,---,0.00,VWS V13.01,2013-05-24 08:26:00,
2013-05-24 03:31:00,71.2,68.4,30.03,WSW,244,0.0,1.0,91,0.00,,---,0.00,VWS V13.01,2013-05-24 08:31:00,
2013-05-24 03:36:00,71.0,68.2,30.04,WSW,244,0.0,0.0,91,0.00,,---,0.00,VWS V13.01,2013-05-24 08:36:00,
2013-05-24 03:41:00,70.8,68.1,30.03,WSW,244,0.0,0.0,91,0.00,,---,0.00,VWS V13.01,2013-05-24 08:41:00,
2013-05-24 03:46:00,70.7,67.9,30.04,WSW,244,0.0,0.0,91,0.00,,---,0.00,VWS V13.01,2013-05-24 08:46:00,
2013-05-24 03:51:00,70.7,68.3,30.04,WSW,244,0.0,0.0,92,0.00,,---,0.00,VWS V13.01,2013-05-24 08:51:00,
2013-05-24 03:56:00,70.6,68.2,30.04,WSW,244,0.0,0.0,92,0.00,,---,0.00,VWS V13.01,2013-05-24 08:56:00,
2013-05-24 04:01:00,70.6,68.2,30.03,WSW,244,0.0,0.0,92,0.00,,---,0.00,VWS V13.01,2013-05-24 09:01:00,
2013-05-24 04:06:00,70.6,68.2,30.04,WSW,244,0.0,0.0,92,0.00,,---,0.00,VWS V13.01,2013-05-24 09:06:00,
2013-05-24 04:11:00,70.5,68.1,30.04,WSW,244,0.0,0.0,92,0.00,,---,0.00,VWS V13.01,2013-05-24 09:11:00,
2013-05-24 04:16:00,70.5,68.1,30.04,WSW,244,0.0,0.0,92,0.00,,---,0.00,VWS V13.01,2013-05-24 09:16:00,
2013-05-24 04:21:00,70.6,68.2,30.04,WSW,244,0.0,0.0,92,0.00,,---,0.00,VWS V13.01,2013-05-24 09:21:00,
2013-05-24 04:26:00,70.6,68.2,30.04,WSW,244,0.0,0.0,92,0.00,,---,0.00,VWS V13.01,2013-05-24 09:26:00,
2013-05-24 04:31:00,70.5,68.1,30.04,WSW,244,0.0,0.0,92,0.00,,---,0.00,VWS V13.01,2013-05-24 09:31:00,
2013-05-24 04:36:00,70.6,68.2,30.04,WSW,244,0.0,0.0,92,0.00,,---,0.00,VWS V13.01,2013-05-24 09:36:00,
2013-05-24 04:41:00,70.6,68.2,30.04,WSW,244,0.0,0.0,92,0.00,,---,0.00,VWS V13.01,2013-05-24 09:41:00,
2013-05-24 04:46:00,70.6,68.2,30.04,WSW,244,0.0,0.0,92,0.00,,---,0.00,VWS V13.01,2013-05-24 09:46:00,
2013-05-24 04:51:00,70.5,68.1,30.04,WSW,244,0.0,0.0,92,0.00,,---,0.00,VWS V13.01,2013-05-24 09:51:00,
2013-05-24 04:56:00,70.5,68.1,30.04,WSW,244,0.0,0.0,92,0.00,,---,0.00,VWS V13.01,2013-05-24 09:56:00,
2013-05-24 05:01:00,70.4,68.0,30.04,WSW,244,0.0,0.0,92,0.00,,---,0.00,VWS V13.01,2013-05-24 10:01:00,
2013-05-24 05:06:00,70.3,67.9,30.04,WSW,244,0.0,0.0,92,0.00,,---,0.00,VWS V13.01,2013-05-24 10:06:00,
2013-05-24 05:11:00,70.3,67.9,30.04,WSW,244,0.0,0.0,92,0.00,,---,0.00,VWS V13.01,2013-05-24 10:11:00,
2013-05-24 05:16:00,70.2,67.8,30.04,WSW,244,0.0,0.0,92,0.00,,---,0.00,VWS V13.01,2013-05-24 10:16:00,
2013-05-24 05:21:00,70.2,67.8,30.04,WSW,244,0.0,0.0,92,0.00,,---,0.00,VWS V13.01,2013-05-24 10:21:00,
2013-05-24 05:26:00,70.2,67.8,30.05,WSW,244,0.0,0.0,92,0.00,,---,0.00,VWS V13.01,2013-05-24 10:26:00,
2013-05-24 05:31:00,70.2,67.4,30.04,WSW,244,0.0,0.0,91,0.00,,---,0.00,VWS V13.01,2013-05-24 10:31:00,
2013-05-24 05:36:00,70.0,67.3,30.05,WSW,244,0.0,0.0,91,0.00,,---,0.00,VWS V13.01,2013-05-24 10:36:00,
2013-05-24 05:41:00,69.7,67.0,30.05,WSW,244,0.0,0.0,91,0.00,,---,0.00,VWS V13.01,2013-05-24 10:41:00,
2013-05-24 05:46:00,69.7,67.0,30.06,WSW,244,0.0,0.0,91,0.00,,---,0.00,VWS V13.01,2013-05-24 10:46:00,
2013-05-24 05:51:00,69.7,67.0,30.06,WSW,244,0.0,0.0,91,0.00,,---,0.00,VWS V13.01,2013-05-24 10:51:00,
2013-05-24 05:56:00,69.7,66.6,30.06,WSW,244,0.0,0.0,90,0.00,,---,0.00,VWS V13.01,2013-05-24 10:56:00,
2013-05-24 06:01:00,69.8,66.7,30.06,WSW,244,0.0,0.0,90,0.00,,---,0.00,VWS V13.01,2013-05-24 11:01:00,
2013-05-24 06:06:00,70.0,66.6,30.07,West,259,0.0,0.0,89,0.00,,---,0.00,VWS V13.01,2013-05-24 11:06:00,
2013-05-24 06:11:00,70.2,66.5,30.07,NNW,329,0.0,0.0,88,0.00,,---,0.00,VWS V13.01,2013-05-24 11:11:00,
2013-05-24 06:16:00,70.4,66.3,30.07,NNW,336,0.0,0.0,87,0.00,,---,0.00,VWS V13.01,2013-05-24 11:16:00,
2013-05-24 06:21:00,70.6,66.2,30.07,NNW,348,0.0,0.0,86,0.00,,---,0.00,VWS V13.01,2013-05-24 11:21:00,
2013-05-24 06:26:00,70.8,66.4,30.07,NNE,13,0.0,2.0,86,0.00,,---,0.00,VWS V13.01,2013-05-24 11:26:00,
2013-05-24 06:31:00,71.0,66.3,30.07,North,5,0.0,0.0,85,0.00,,---,0.00,VWS V13.01,2013-05-24 11:31:00,
2013-05-24 06:36:00,71.3,66.6,30.08,North,9,0.0,0.0,85,0.00,,---,0.00,VWS V13.01,2013-05-24 11:36:00,
2013-05-24 06:41:00,71.5,66.4,30.08,North,10,0.0,0.0,84,0.00,,---,0.00,VWS V13.01,2013-05-24 11:41:00,
2013-05-24 06:46:00,71.8,66.4,30.08,North,360,1.0,6.0,83,0.00,,---,0.00,VWS V13.01,2013-05-24 11:46:00,
2013-05-24 06:51:00,72.1,66.3,30.08,NNE,18,0.0,0.0,82,0.00,,---,0.00,VWS V13.01,2013-05-24 11:51:00,
2013-05-24 06:56:00,72.3,66.2,30.08,NE,48,0.0,0.0,81,0.00,,---,0.00,VWS V13.01,2013-05-24 11:56:00,
2013-05-24 07:01:00,72.6,66.1,30.08,North,355,0.0,0.0,80,0.00,,---,0.00,VWS V13.01,2013-05-24 12:01:00,
2013-05-24 07:06:00,72.8,66.3,30.08,NNE,32,1.0,5.0,80,0.00,,---,0.00,VWS V13.01,2013-05-24 12:06:00,
2013-05-24 07:11:00,73.1,65.8,30.08,North,9,5.0,5.0,78,0.00,,---,0.00,VWS V13.01,2013-05-24 12:11:00,
2013-05-24 07:16:00,73.2,65.9,30.08,North,355,3.0,7.0,78,0.00,,---,0.00,VWS V13.01,2013-05-24 12:16:00,
2013-05-24 07:21:00,73.5,65.9,30.08,NE,34,5.0,9.0,77,0.00,,---,0.00,VWS V13.01,2013-05-24 12:21:00,
2013-05-24 07:26:00,73.9,65.9,30.09,North,11,4.0,7.0,76,0.00,,---,0.00,VWS V13.01,2013-05-24 12:26:00,
2013-05-24 07:31:00,74.1,65.7,30.09,NE,36,3.0,3.0,75,0.00,,---,0.00,VWS V13.01,2013-05-24 12:31:00,
2013-05-24 07:36:00,74.5,66.1,30.09,NE,46,0.0,0.0,75,0.00,,---,0.00,VWS V13.01,2013-05-24 12:36:00,
2013-05-24 07:41:00,74.9,65.7,30.10,North,9,0.0,0.0,73,0.00,,---,0.00,VWS V13.01,2013-05-24 12:41:00,
2013-05-24 07:46:00,75.1,65.5,30.10,NNE,31,1.0,9.0,72,0.00,,---,0.00,VWS V13.01,2013-05-24 12:46:00,
2013-05-24 07:51:00,75.2,65.2,30.10,NNE,32,4.0,4.0,71,0.00,,---,0.00,VWS V13.01,2013-05-24 12:51:00,
2013-05-24 07:56:00,75.5,65.0,30.10,NNE,23,6.0,6.0,70,0.00,,---,0.00,VWS V13.01,2013-05-24 12:56:00,
2013-05-24 08:01:00,75.6,65.1,30.11,NNE,21,10.0,10.0,70,0.00,,---,0.00,VWS V13.01,2013-05-24 13:01:00,
2013-05-24 08:06:00,75.7,65.2,30.10,NW,321,5.0,5.0,70,0.00,,---,0.00,VWS V13.01,2013-05-24 13:06:00,
2013-05-24 08:11:00,76.2,65.7,30.11,NE,40,5.0,5.0,70,0.00,,---,0.00,VWS V13.01,2013-05-24 13:11:00,
2013-05-24 08:16:00,76.8,66.3,30.12,NNW,348,4.0,6.0,70,0.00,,---,0.00,VWS V13.01,2013-05-24 13:16:00,
2013-05-24 08:21:00,76.9,65.1,30.12,NNE,28,7.0,7.0,67,0.00,,---,0.00,VWS V13.01,2013-05-24 13:21:00,
2013-05-24 08:26:00,76.3,65.0,30.13,ENE,64,2.0,4.0,68,0.00,,---,0.00,VWS V13.01,2013-05-24 13:26:00,
2013-05-24 08:31:00,76.8,66.7,30.13,North,360,0.0,0.0,71,0.00,,---,0.00,VWS V13.01,2013-05-24 13:31:00,
2013-05-24 08:36:00,77.5,66.1,30.13,NNE,19,0.0,0.0,68,0.00,,---,0.00,VWS V13.01,2013-05-24 13:36:00,
2013-05-24 08:41:00,77.6,65.3,30.13,NNE,12,0.0,0.0,66,0.00,,---,0.00,VWS V13.01,2013-05-24 13:41:00,
2013-05-24 08:46:00,77.5,64.8,30.13,NNE,25,1.0,5.0,65,0.00,,---,0.00,VWS V13.01,2013-05-24 13:46:00,
2013-05-24 08:51:00,77.5,65.3,30.13,NNE,15,9.0,10.0,66,0.00,,---,0.00,VWS V13.01,2013-05-24 13:51:00,
2013-05-24 08:56:00,77.9,66.1,30.13,NNE,23,0.0,4.0,67,0.00,,---,0.00,VWS V13.01,2013-05-24 13:56:00,
2013-05-24 09:01:00,78.7,65.5,30.13,NE,43,10.0,10.0,64,0.00,,---,0.00,VWS V13.01,2013-05-24 14:01:00,
2013-05-24 09:06:00,78.8,65.2,30.13,NNE,17,6.0,6.0,63,0.00,,---,0.00,VWS V13.01,2013-05-24 14:06:00,
2013-05-24 09:11:00,79.3,67.0,30.13,NNE,17,2.0,6.0,66,0.00,,---,0.00,VWS V13.01,2013-05-24 14:11:00,
2013-05-24 09:16:00,79.6,65.4,30.13,ENE,69,9.0,10.0,62,0.00,,---,0.00,VWS V13.01,2013-05-24 14:16:00,
2013-05-24 09:21:00,79.8,66.1,30.13,NNE,16,2.0,4.0,63,0.00,,---,0.00,VWS V13.01,2013-05-24 14:21:00,
2013-05-24 09:26:00,80.2,67.4,30.13,NNE,24,2.0,2.0,65,0.00,,---,0.00,VWS V13.01,2013-05-24 14:26:00,
2013-05-24 09:30:00,81.1,67.8,30.13,North,11,2.0,2.0,64,0.00,,---,0.00,VWS V13.01,2013-05-24 14:30:00,
2013-05-24 09:35:00,81.1,66.9,30.13,WNW,296,0.0,2.0,62,0.00,,---,0.00,VWS V13.01,2013-05-24 14:35:00,
2013-05-24 09:40:00,81.0,66.8,30.14,NNW,329,0.0,1.0,62,0.00,,---,0.00,VWS V13.01,2013-05-24 14:40:00,
2013-05-24 09:45:00,80.8,65.6,30.14,North,9,0.0,4.0,60,0.00,,---,0.00,VWS V13.01,2013-05-24 14:45:00,
2013-05-24 09:50:00,81.1,65.9,30.14,North,10,3.0,6.0,60,0.00,,---,0.00,VWS V13.01,2013-05-24 14:50:00,
2013-05-24 09:55:00,81.4,66.7,30.14,North,360,5.0,7.0,61,0.00,,---,0.00,VWS V13.01,2013-05-24 14:55:00,
2013-05-24 10:00:00,82.1,67.3,30.14,NNE,23,0.0,0.0,61,0.00,,---,0.00,VWS V13.01,2013-05-24 15:00:00,
2013-05-24 10:05:00,82.5,68.2,30.14,NNE,19,1.0,4.0,62,0.00,,---,0.00,VWS V13.01,2013-05-24 15:05:00,
2013-05-24 10:10:00,82.3,67.0,30.14,ENE,61,0.0,0.0,60,0.00,,---,0.00,VWS V13.01,2013-05-24 15:10:00,
2013-05-24 10:15:00,82.1,67.3,30.14,North,351,10.0,11.0,61,0.00,,---,0.00,VWS V13.01,2013-05-24 15:15:00,
2013-05-24 10:20:00,82.4,67.6,30.14,NNE,23,5.0,5.0,61,0.00,,---,0.00,VWS V13.01,2013-05-24 15:20:00,
2013-05-24 10:25:00,82.1,66.8,30.14,SE,126,0.0,0.0,60,0.00,,---,0.00,VWS V13.01,2013-05-24 15:25:00,
2013-05-24 10:30:00,82.8,67.5,30.14,NNE,33,0.0,0.0,60,0.00,,---,0.00,VWS V13.01,2013-05-24 15:30:00,
2013-05-24 10:35:00,82.9,68.6,30.14,North,5,2.0,2.0,62,0.00,,---,0.00,VWS V13.01,2013-05-24 15:35:00,
2013-05-24 10:40:00,83.2,67.4,30.14,NNE,23,3.0,6.0,59,0.00,,---,0.00,VWS V13.01,2013-05-24 15:40:00,
2013-05-24 10:45:00,83.3,68.0,30.14,North,360,0.0,0.0,60,0.00,,---,0.00,VWS V13.01,2013-05-24 15:45:00,
2013-05-24 10:50:00,83.8,68.0,30.14,NNW,336,0.0,0.0,59,0.00,,---,0.00,VWS V13.01,2013-05-24 15:50:00,
2013-05-24 10:55:00,83.8,67.5,30.14,NNE,30,0.0,0.0,58,0.00,,---,0.00,VWS V13.01,2013-05-24 15:55:00,
2013-05-24 11:00:00,83.7,67.9,30.14,West,269,0.0,0.0,59,0.00,,---,0.00,VWS V13.01,2013-05-24 16:00:00,
2013-05-24 11:05:00,83.2,67.4,30.14,North,5,5.0,6.0,59,0.00,,---,0.00,VWS V13.01,2013-05-24 16:05:00,
2013-05-24 11:10:00,84.0,68.1,30.14,North,5,0.0,0.0,59,0.00,,---,0.00,VWS V13.01,2013-05-24 16:10:00,
2013-05-24 11:15:00,84.1,67.7,30.14,WNW,288,0.0,0.0,58,0.00,,---,0.00,VWS V13.01,2013-05-24 16:15:00,
2013-05-24 11:20:00,83.9,68.5,30.14,North,5,0.0,0.0,60,0.00,,---,0.00,VWS V13.01,2013-05-24 16:20:00,
2013-05-24 11:25:00,84.8,66.8,30.14,NNE,24,3.0,14.0,55,0.00,,---,0.00,VWS V13.01,2013-05-24 16:25:00,
2013-05-24 11:30:00,84.7,67.3,30.14,NNE,13,10.0,16.0,56,0.00,,---,0.00,VWS V13.01,2013-05-24 16:30:00,
2013-05-24 11:35:00,84.7,68.8,30.13,NE,37,9.0,10.0,59,0.00,,---,0.00,VWS V13.01,2013-05-24 16:35:00,
2013-05-24 11:40:00,84.9,66.9,30.13,NW,311,2.0,15.0,55,0.00,,---,0.00,VWS V13.01,2013-05-24 16:40:00,
2013-05-24 11:45:00,84.1,67.2,30.13,WNW,296,0.0,6.0,57,0.00,,---,0.00,VWS V13.01,2013-05-24 16:45:00,
2013-05-24 11:50:00,84.3,65.9,30.13,WNW,290,0.0,3.0,54,0.00,,---,0.00,VWS V13.01,2013-05-24 16:50:00,
2013-05-24 11:55:00,84.7,65.7,30.13,NNW,330,2.0,12.0,53,0.00,,---,0.00,VWS V13.01,2013-05-24 16:55:00,
2013-05-24 12:00:00,84.8,66.3,30.13,North,355,0.0,13.0,54,0.00,,---,0.00,VWS V13.01,2013-05-24 17:00:00,
2013-05-24 12:05:00,85.2,65.1,30.13,NNE,28,2.0,15.0,51,0.00,,---,0.00,VWS V13.01,2013-05-24 17:05:00,
2013-05-24 12:10:00,85.1,66.6,30.13,NE,49,1.0,7.0,54,0.00,,---,0.00,VWS V13.01,2013-05-24 17:10:00,
2013-05-24 12:15:00,85.0,67.0,30.13,WNW,303,0.0,9.0,55,0.00,,---,0.00,VWS V13.01,2013-05-24 17:15:00,
2013-05-24 12:20:00,85.3,67.8,30.13,NW,323,0.0,7.0,56,0.00,,---,0.00,VWS V13.01,2013-05-24 17:20:00,
2013-05-24 12:25:00,85.9,67.3,30.12,North,355,2.0,12.0,54,0.00,,---,0.00,VWS V13.01,2013-05-24 17:25:00,
2013-05-24 12:30:00,85.8,66.7,30.12,SW,232,0.0,3.0,53,0.00,,---,0.00,VWS V13.01,2013-05-24 17:30:00,
2013-05-24 12:35:00,86.1,67.5,30.12,NNE,12,0.0,7.0,54,0.00,,---,0.00,VWS V13.01,2013-05-24 17:35:00,
2013-05-24 12:40:00,85.9,66.2,30.12,NNE,15,1.0,4.0,52,0.00,,---,0.00,VWS V13.01,2013-05-24 17:40:00,
2013-05-24 12:45:00,86.5,66.2,30.13,North,9,0.0,14.0,51,0.00,,---,0.00,VWS V13.01,2013-05-24 17:45:00,
2013-05-24 12:50:00,86.7,66.4,30.12,NNE,17,0.0,9.0,51,0.00,,---,0.00,VWS V13.01,2013-05-24 17:50:00,
2013-05-24 12:55:00,86.3,65.5,30.12,NW,318,0.0,5.0,50,0.00,,---,0.00,VWS V13.01,2013-05-24 17:55:00,
2013-05-24 13:00:00,86.5,66.2,30.12,WNW,302,0.0,13.0,51,0.00,,---,0.00,VWS V13.01,2013-05-24 18:00:00,
2013-05-24 13:05:00,86.7,65.9,30.12,WSW,246,0.0,4.0,50,0.00,,---,0.00,VWS V13.01,2013-05-24 18:05:00,
2013-05-24 13:10:00,86.7,65.3,30.12,West,278,0.0,11.0,49,0.00,,---,0.00,VWS V13.01,2013-05-24 18:10:00,
2013-05-24 13:15:00,86.9,66.0,30.11,NNW,338,1.0,17.0,50,0.00,,---,0.00,VWS V13.01,2013-05-24 18:15:00,
2013-05-24 13:20:00,87.4,65.9,30.12,NW,304,0.0,6.0,49,0.00,,---,0.00,VWS V13.01,2013-05-24 18:20:00,
2013-05-24 13:25:00,87.1,65.6,30.12,WNW,286,0.0,11.0,49,0.00,,---,0.00,VWS V13.01,2013-05-24 18:25:00,
2013-05-24 13:30:00,87.0,66.1,30.12,WNW,302,3.0,9.0,50,0.00,,---,0.00,VWS V13.01,2013-05-24 18:30:00,
2013-05-24 13:35:00,87.5,66.6,30.11,West,267,0.0,5.0,50,0.00,,---,0.00,VWS V13.01,2013-05-24 18:35:00,
2013-05-24 13:40:00,87.7,66.2,30.11,WSW,247,0.0,3.0,49,0.00,,---,0.00,VWS V13.01,2013-05-24 18:40:00,
2013-05-24 13:45:00,88.1,67.1,30.12,North,10,1.0,6.0,50,0.00,,---,0.00,VWS V13.01,2013-05-24 18:45:00,
2013-05-24 13:50:00,88.6,66.4,30.12,NNW,338,0.0,10.0,48,0.00,,---,0.00,VWS V13.01,2013-05-24 18:50:00,
2013-05-24 13:55:00,87.9,65.8,30.12,WSW,257,3.0,5.0,48,0.00,,---,0.00,VWS V13.01,2013-05-24 18:55:00,
2013-05-24 14:00:00,87.4,65.3,30.11,WNW,295,0.0,4.0,48,0.00,,---,0.00,VWS V13.01,2013-05-24 19:00:00,
2013-05-24 14:05:00,87.5,64.8,30.11,West,267,3.0,6.0,47,0.00,,---,0.00,VWS V13.01,2013-05-24 19:05:00,
2013-05-24 14:10:00,87.7,65.6,30.11,WSW,258,0.0,2.0,48,0.00,,---,0.00,VWS V13.01,2013-05-24 19:10:00,
2013-05-24 14:15:00,87.9,65.2,30.11,North,360,3.0,11.0,47,0.00,,---,0.00,VWS V13.01,2013-05-24 19:15:00,
2013-05-24 14:20:00,88.3,64.3,30.11,NNW,333,0.0,11.0,45,0.00,,---,0.00,VWS V13.01,2013-05-24 19:20:00,
2013-05-24 14:25:00,88.1,64.1,30.10,WNW,295,1.0,6.0,45,0.00,,---,0.00,VWS V13.01,2013-05-24 19:25:00,
2013-05-24 14:30:00,87.7,61.8,30.10,NW,317,0.0,14.0,42,0.00,,---,0.00,VWS V13.01,2013-05-24 19:30:00,
2013-05-24 14:35:00,87.9,63.3,30.10,NNW,338,0.0,13.0,44,0.00,,---,0.00,VWS V13.01,2013-05-24 19:35:00,
2013-05-24 14:40:00,88.4,63.1,30.10,West,262,0.0,13.0,43,0.00,,---,0.00,VWS V13.01,2013-05-24 19:40:00,
2013-05-24 14:45:00,88.2,62.2,30.10,NE,40,3.0,5.0,42,0.00,,---,0.00,VWS V13.01,2013-05-24 19:45:00,
2013-05-24 14:50:00,88.7,63.3,30.10,NNW,333,4.0,16.0,43,0.00,,---,0.00,VWS V13.01,2013-05-24 19:50:00,
2013-05-24 14:55:00,88.4,63.7,30.10,WSW,243,0.0,11.0,44,0.00,,---,0.00,VWS V13.01,2013-05-24 19:55:00,
2013-05-24 15:00:00,88.3,64.3,30.10,NNW,332,0.0,4.0,45,0.00,,---,0.00,VWS V13.01,2013-05-24 20:00:00,
2013-05-24 15:05:00,88.5,63.2,30.10,NE,42,0.0,14.0,43,0.00,,---,0.00,VWS V13.01,2013-05-24 20:05:00,
2013-05-24 15:10:00,88.0,62.7,30.10,NW,306,0.0,5.0,43,0.00,,---,0.00,VWS V13.01,2013-05-24 20:10:00,
2013-05-24 15:15:00,87.8,66.3,30.10,NW,313,0.0,1.0,49,0.00,,---,0.00,VWS V13.01,2013-05-24 20:15:00,
2013-05-24 15:20:00,88.2,64.2,30.10,WNW,283,0.0,17.0,45,0.00,,---,0.00,VWS V13.01,2013-05-24 20:20:00,
2013-05-24 15:25:00,88.7,64.0,30.10,NNE,31,0.0,7.0,44,0.00,,---,0.00,VWS V13.01,2013-05-24 20:25:00,
2013-05-24 15:30:00,88.5,61.1,30.10,NNE,21,3.0,13.0,40,0.00,,---,0.00,VWS V13.01,2013-05-24 20:30:00,
2013-05-24 15:35:00,88.1,63.5,30.10,NNE,22,2.0,10.0,44,0.00,,---,0.00,VWS V13.01,2013-05-24 20:35:00,
2013-05-24 15:40:00,88.3,61.6,30.10,NNE,28,0.0,9.0,41,0.00,,---,0.00,VWS V13.01,2013-05-24 20:40:00,
2013-05-24 15:45:00,88.4,61.7,30.10,NNW,345,2.0,11.0,41,0.00,,---,0.00,VWS V13.01,2013-05-24 20:45:00,
2013-05-24 15:50:00,88.0,61.4,30.09,NE,36,4.0,12.0,41,0.00,,---,0.00,VWS V13.01,2013-05-24 20:50:00,
2013-05-24 15:55:00,87.8,61.2,30.09,NW,325,1.0,10.0,41,0.00,,---,0.00,VWS V13.01,2013-05-24 20:55:00,
2013-05-24 16:00:00,87.9,62.6,30.09,West,271,0.0,4.0,43,0.00,,---,0.00,VWS V13.01,2013-05-24 21:00:00,
2013-05-24 16:05:00,88.1,62.1,30.09,North,9,0.0,2.0,42,0.00,,---,0.00,VWS V13.01,2013-05-24 21:05:00,
2013-05-24 16:10:00,87.8,63.2,30.09,WNW,300,0.0,4.0,44,0.00,,---,0.00,VWS V13.01,2013-05-24 21:10:00,
2013-05-24 16:15:00,87.7,62.5,30.09,WNW,297,0.0,4.0,43,0.00,,---,0.00,VWS V13.01,2013-05-24 21:15:00,
2013-05-24 16:20:00,87.6,62.4,30.09,West,260,0.0,5.0,43,0.00,,---,0.00,VWS V13.01,2013-05-24 21:20:00,
2013-05-24 16:25:00,87.6,62.4,30.09,West,276,0.0,3.0,43,0.00,,---,0.00,VWS V13.01,2013-05-24 21:25:00,
2013-05-24 16:30:00,87.5,60.9,30.09,WSW,248,0.0,3.0,41,0.00,,---,0.00,VWS V13.01,2013-05-24 21:30:00,
2013-05-24 16:35:00,87.2,62.0,30.10,NNE,26,2.0,11.0,43,0.00,,---,0.00,VWS V13.01,2013-05-24 21:35:00,
2013-05-24 16:40:00,86.5,61.4,30.09,NE,48,2.0,9.0,43,0.00,,---,0.00,VWS V13.01,2013-05-24 21:40:00,
2013-05-24 16:45:00,86.3,62.5,30.10,WSW,252,0.0,15.0,45,0.00,,---,0.00,VWS V13.01,2013-05-24 21:45:00,
2013-05-24 16:50:00,86.5,62.0,30.10,NW,310,1.0,10.0,44,0.00,,---,0.00,VWS V13.01,2013-05-24 21:50:00,
2013-05-24 16:55:00,86.3,61.8,30.09,NNE,13,0.0,5.0,44,0.00,,---,0.00,VWS V13.01,2013-05-24 21:55:00,
2013-05-24 17:00:00,86.5,61.4,30.09,NNE,16,6.0,13.0,43,0.00,,---,0.00,VWS V13.01,2013-05-24 22:00:00,
2013-05-24 17:05:00,86.2,60.4,30.09,NNW,342,0.0,15.0,42,0.00,,---,0.00,VWS V13.01,2013-05-24 22:05:00,
2013-05-24 17:10:00,85.7,60.7,30.09,NNW,337,7.0,12.0,43,0.00,,---,0.00,VWS V13.01,2013-05-24 22:10:00,
2013-05-24 17:15:00,85.6,59.9,30.09,NNE,16,1.0,8.0,42,0.00,,---,0.00,VWS V13.01,2013-05-24 22:15:00,
2013-05-24 17:20:00,85.7,61.3,30.10,NNE,17,11.0,13.0,44,0.00,,---,0.00,VWS V13.01,2013-05-24 22:20:00,
2013-05-24 17:25:00,85.4,60.4,30.09,NNE,28,9.0,13.0,43,0.00,,---,0.00,VWS V13.01,2013-05-24 22:25:00,
2013-05-24 17:30:00,85.6,60.6,30.09,ENE,65,8.0,11.0,43,0.00,,---,0.00,VWS V13.01,2013-05-24 22:30:00,
2013-05-24 17:35:00,85.7,59.3,30.09,NNE,27,0.0,14.0,41,0.00,,---,0.00,VWS V13.01,2013-05-24 22:35:00,
2013-05-24 17:40:00,85.6,59.2,30.09,NNE,12,0.0,12.0,41,0.00,,---,0.00,VWS V13.01,2013-05-24 22:40:00,
2013-05-24 17:45:00,85.4,59.0,30.09,NE,45,3.0,13.0,41,0.00,,---,0.00,VWS V13.01,2013-05-24 22:45:00,
2013-05-24 17:50:00,85.0,59.4,30.09,NNE,19,0.0,9.0,42,0.00,,---,0.00,VWS V13.01,2013-05-24 22:50:00,
2013-05-24 17:55:00,84.9,59.3,30.09,North,11,0.0,6.0,42,0.00,,---,0.00,VWS V13.01,2013-05-24 22:55:00,
2013-05-24 18:00:00,84.7,58.4,30.09,NNW,342,0.0,6.0,41,0.00,,---,0.00,VWS V13.01,2013-05-24 23:00:00,
2013-05-24 18:05:00,84.7,58.4,30.09,North,355,0.0,6.0,41,0.00,,---,0.00,VWS V13.01,2013-05-24 23:05:00,
2013-05-24 18:10:00,84.6,57.6,30.09,NNE,22,0.0,11.0,40,0.00,,---,0.00,VWS V13.01,2013-05-24 23:10:00,
2013-05-24 18:15:00,84.5,58.9,30.09,NNE,13,0.0,5.0,42,0.00,,---,0.00,VWS V13.01,2013-05-24 23:15:00,
2013-05-24 18:20:00,84.1,58.5,30.09,West,264,0.0,4.0,42,0.00,,---,0.00,VWS V13.01,2013-05-24 23:20:00,
2013-05-24 18:25:00,84.1,59.2,30.09,NNW,331,2.0,7.0,43,0.00,,---,0.00,VWS V13.01,2013-05-24 23:25:00,
2013-05-24 18:30:00,83.7,58.8,30.09,NNE,24,2.0,6.0,43,0.00,,---,0.00,VWS V13.01,2013-05-24 23:30:00,
2013-05-24 18:35:00,83.6,59.4,30.09,NNE,17,0.0,7.0,44,0.00,,---,0.00,VWS V13.01,2013-05-24 23:35:00,
2013-05-24 18:40:00,83.6,58.8,30.09,North,9,0.0,7.0,43,0.00,,---,0.00,VWS V13.01,2013-05-24 23:40:00,
2013-05-24 18:45:00,83.4,57.9,30.09,WNW,285,0.0,11.0,42,0.00,,---,0.00,VWS V13.01,2013-05-24 23:45:00,
2013-05-24 18:50:00,83.2,57.1,30.09,NE,40,9.0,13.0,41,0.00,,---,0.00,VWS V13.01,2013-05-24 23:50:00,
2013-05-24 18:55:00,83.1,57.0,30.09,NNE,17,4.0,7.0,41,0.00,,---,0.00,VWS V13.01,2013-05-24 23:55:00,
2013-05-24 19:00:00,82.7,56.0,30.10,ENE,74,4.0,8.0,40,0.00,,---,0.00,VWS V13.01,2013-05-25 00:00:00,
2013-05-24 19:05:00,82.5,55.8,30.10,NNE,15,0.0,7.0,40,0.00,,---,0.00,VWS V13.01,2013-05-25 00:05:00,
2013-05-24 19:10:00,82.2,55.5,30.10,ENE,60,5.0,9.0,40,0.00,,---,0.00,VWS V13.01,2013-05-25 00:10:00,
2013-05-24 19:15:00,82.0,55.3,30.10,ENE,59,0.0,4.0,40,0.00,,---,0.00,VWS V13.01,2013-05-25 00:15:00,
2013-05-24 19:20:00,81.7,54.4,30.10,NNE,19,2.0,8.0,39,0.00,,---,0.00,VWS V13.01,2013-05-25 00:20:00,
2013-05-24 19:25:00,81.4,54.8,30.10,NNE,15,0.0,4.0,40,0.00,,---,0.00,VWS V13.01,2013-05-25 00:25:00,
2013-05-24 19:30:00,80.9,55.0,30.10,NNE,19,2.0,4.0,41,0.00,,---,0.00,VWS V13.01,2013-05-25 00:30:00,
2013-05-24 19:35:00,80.3,54.5,30.10,NNE,19,5.0,6.0,41,0.00,,---,0.00,VWS V13.01,2013-05-25 00:35:00,
2013-05-24 19:40:00,80.0,54.9,30.11,NE,44,0.0,6.0,42,0.00,,---,0.00,VWS V13.01,2013-05-25 00:40:00,
2013-05-24 19:45:00,79.6,54.5,30.11,North,355,0.0,2.0,42,0.00,,---,0.00,VWS V13.01,2013-05-25 00:45:00,
2013-05-24 19:50:00,78.8,54.4,30.11,North,355,0.0,1.0,43,0.00,,---,0.00,VWS V13.01,2013-05-25 00:50:00,
2013-05-24 19:55:00,78.0,54.3,30.11,North,355,0.0,0.0,44,0.00,,---,0.00,VWS V13.01,2013-05-25 00:55:00,
2013-05-24 20:00:00,77.3,54.3,30.11,North,350,0.0,2.0,45,0.00,,---,0.00,VWS V13.01,2013-05-25 01:00:00,
2013-05-24 20:05:00,76.8,54.5,30.11,North,351,0.0,0.0,46,0.00,,---,0.00,VWS V13.01,2013-05-25 01:05:00,
2013-05-24 20:10:00,76.2,54.5,30.11,North,350,0.0,0.0,47,0.00,,---,0.00,VWS V13.01,2013-05-25 01:10:00,
2013-05-24 20:15:00,76.1,54.4,30.11,North,350,0.0,0.0,47,0.00,,---,0.00,VWS V13.01,2013-05-25 01:15:00,
2013-05-24 20:19:00,76.3,54.6,30.12,NE,40,0.0,2.0,47,0.00,,---,0.00,VWS V13.01,2013-05-25 01:19:00,
2013-05-24 20:24:00,76.4,54.7,30.12,NNE,24,0.0,1.0,47,0.00,,---,0.00,VWS V13.01,2013-05-25 01:24:00,
2013-05-24 20:29:00,76.4,54.7,30.12,NNE,21,0.0,3.0,47,0.00,,---,0.00,VWS V13.01,2013-05-25 01:29:00,
2013-05-24 20:34:00,76.1,54.4,30.12,NNE,21,0.0,3.0,47,0.00,,---,0.00,VWS V13.01,2013-05-25 01:34:00,
2013-05-24 20:39:00,75.8,54.7,30.12,NNE,21,0.0,1.0,48,0.00,,---,0.00,VWS V13.01,2013-05-25 01:39:00,
2013-05-24 20:44:00,75.5,54.5,30.13,NNE,21,0.0,1.0,48,0.00,,---,0.00,VWS V13.01,2013-05-25 01:44:00,
2013-05-24 20:49:00,75.4,54.4,30.12,NE,34,0.0,5.0,48,0.00,,---,0.00,VWS V13.01,2013-05-25 01:49:00,
2013-05-24 20:54:00,75.5,55.0,30.13,North,5,0.0,4.0,49,0.00,,---,0.00,VWS V13.01,2013-05-25 01:54:00,
2013-05-24 20:59:00,74.9,54.5,30.13,North,5,0.0,0.0,49,0.00,,---,0.00,VWS V13.01,2013-05-25 01:59:00,
2013-05-24 21:04:00,74.3,54.5,30.13,North,5,0.0,0.0,50,0.00,,---,0.00,VWS V13.01,2013-05-25 02:04:00,
2013-05-24 21:09:00,73.9,54.7,30.14,North,5,0.0,0.0,51,0.00,,---,0.00,VWS V13.01,2013-05-25 02:09:00,
2013-05-24 21:14:00,73.4,54.7,30.14,North,5,0.0,0.0,52,0.00,,---,0.00,VWS V13.01,2013-05-25 02:14:00,
2013-05-24 21:19:00,73.2,55.1,30.14,North,5,0.0,2.0,53,0.00,,---,0.00,VWS V13.01,2013-05-25 02:19:00,
2013-05-24 21:24:00,73.3,55.2,30.14,North,5,0.0,1.0,53,0.00,,---,0.00,VWS V13.01,2013-05-25 02:24:00,
2013-05-24 21:29:00,73.3,55.2,30.14,NE,36,0.0,1.0,53,0.00,,---,0.00,VWS V13.01,2013-05-25 02:29:00,
2013-05-24 21:34:00,73.0,54.9,30.15,NE,36,0.0,0.0,53,0.00,,---,0.00,VWS V13.01,2013-05-25 02:34:00,
2013-05-24 21:39:00,72.6,55.0,30.15,NE,36,0.0,0.0,54,0.00,,---,0.00,VWS V13.01,2013-05-25 02:39:00,
2013-05-24 21:44:00,72.6,55.0,30.16,NNE,32,0.0,4.0,54,0.00,,---,0.00,VWS V13.01,2013-05-25 02:44:00,
2013-05-24 21:49:00,72.9,54.8,30.16,NE,39,0.0,2.0,53,0.00,,---,0.00,VWS V13.01,2013-05-25 02:49:00,
2013-05-24 21:54:00,73.0,55.4,30.16,NE,39,0.0,1.0,54,0.00,,---,0.00,VWS V13.01,2013-05-25 02:54:00,
2013-05-24 21:59:00,72.7,55.1,30.16,NNE,15,0.0,1.0,54,0.00,,---,0.00,VWS V13.01,2013-05-25 02:59:00,
2013-05-24 22:04:00,72.5,55.4,30.16,NNE,23,0.0,3.0,55,0.00,,---,0.00,VWS V13.01,2013-05-25 03:04:00,
2013-05-24 22:09:00,72.4,54.8,30.16,NNE,33,0.0,5.0,54,0.00,,---,0.00,VWS V13.01,2013-05-25 03:09:00,
2013-05-24 22:14:00,72.3,55.2,30.17,NNE,30,2.0,4.0,55,0.00,,---,0.00,VWS V13.01,2013-05-25 03:14:00,
2013-05-24 22:19:00,72.2,55.2,30.17,NNE,24,0.0,3.0,55,0.00,,---,0.00,VWS V13.01,2013-05-25 03:19:00,
2013-05-24 22:24:00,72.1,55.1,30.17,NE,42,0.0,5.0,55,0.00,,---,0.00,VWS V13.01,2013-05-25 03:24:00,
2013-05-24 22:29:00,72.0,55.0,30.17,NNE,15,0.0,4.0,55,0.00,,---,0.00,VWS V13.01,2013-05-25 03:29:00,
2013-05-24 22:34:00,71.8,54.8,30.17,NE,34,0.0,3.0,55,0.00,,---,0.00,VWS V13.01,2013-05-25 03:34:00,
2013-05-24 22:39:00,71.4,54.9,30.17,NNE,26,3.0,3.0,56,0.00,,---,0.00,VWS V13.01,2013-05-25 03:39:00,
2013-05-24 22:44:00,71.2,55.2,30.17,NNE,25,0.0,1.0,57,0.00,,---,0.00,VWS V13.01,2013-05-25 03:44:00,
2013-05-24 22:49:00,71.0,55.0,30.17,NNE,27,0.0,4.0,57,0.00,,---,0.00,VWS V13.01,2013-05-25 03:49:00,
2013-05-24 22:54:00,70.6,54.6,30.17,NNE,27,0.0,1.0,57,0.00,,---,0.00,VWS V13.01,2013-05-25 03:54:00,
2013-05-24 22:59:00,70.4,54.9,30.17,NNE,27,0.0,3.0,58,0.00,,---,0.00,VWS V13.01,2013-05-25 03:59:00,
2013-05-24 23:01:00,70.2,54.8,30.17,NNE,26,0.0,0.0,58,0.00,,---,0.00,VWS V13.01,2013-05-25 04:01:00,
2013-05-24 23:06:00,69.9,54.9,30.17,NNE,26,0.0,0.0,59,0.00,,---,0.00,VWS V13.01,2013-05-25 04:06:00,
2013-05-24 23:11:00,69.5,54.6,30.17,NNE,26,0.0,0.0,59,0.00,,---,0.00,VWS V13.01,2013-05-25 04:11:00,
2013-05-24 23:16:00,69.6,54.7,30.17,NNE,26,0.0,0.0,59,0.00,,---,0.00,VWS V13.01,2013-05-25 04:16:00,
2013-05-24 23:21:00,69.6,54.7,30.17,NNE,27,0.0,1.0,59,0.00,,---,0.00,VWS V13.01,2013-05-25 04:21:00,
2013-05-24 23:26:00,69.6,54.7,30.17,NNE,19,0.0,4.0,59,0.00,,---,0.00,VWS V13.01,2013-05-25 04:26:00,
2013-05-24 23:31:00,69.4,54.5,30.17,NNE,18,0.0,0.0,59,0.00,,---,0.00,VWS V13.01,2013-05-25 04:31:00,
2013-05-24 23:36:00,69.3,54.4,30.17,NNE,22,0.0,0.0,59,0.00,,---,0.00,VWS V13.01,2013-05-25 04:36:00,
2013-05-24 23:41:00,69.1,54.7,30.17,NNE,22,0.0,0.0,60,0.00,,---,0.00,VWS V13.01,2013-05-25 04:41:00,
2013-05-24 23:46:00,68.8,54.4,30.17,NNE,19,0.0,2.0,60,0.00,,---,0.00,VWS V13.01,2013-05-25 04:46:00,
2013-05-24 23:51:00,68.5,54.1,30.17,NNE,19,0.0,0.0,60,0.00,,---,0.00,VWS V13.01,2013-05-25 04:51:00,
2013-05-24 23:56:00,68.3,54.3,30.17,NNE,19,0.0,0.0,61,0.00,,---,0.00,VWS V13.01,2013-05-25 04:56:00,